星链-31616 (STARLINK-31616 )

导读

STARLINK-31616是美国太空探索技术公司(SpaceX)发射的星链卫星,于2024年3月19日发射升空,归属于星链星座,该星座旨在为全球提供高速宽带互联网服务,已发射数万颗卫星入轨,对全球网络覆盖,尤其是偏远地区接入互联网发挥着重要作用。

Basic Information
目录编号:
59270
目录名称:
STARLINK-31616
国际标识:
2024-050S
轨道中心:
EARTH
卫星名称:
星链-31616
卫星全名:
星链-31616 (STARLINK-31616 )
卫星状态:
在轨 (已飞行899 天)
发射日期:
2024-03-19 UTC
国别 :
美国 (US)
星等 :
--
Orbit Information
数据来源 国际轨道数据
星历时间: 2026-09-03T21:36:30+0800
14小时前
查看轨道信息
半长轴: 6840.887km
偏心率: 0.0001082
轨道倾角: 53.159°
近地点辐角 82.435°
升交点赤经 72.553°
平近点角 277.677°
近地点: 462.009km
远地点: 463.491km
周期: 93.849分钟
每日圈数: 15.343846
Detailed Information
固有亮度:
5
最大亮度:
0.3
卫星平台:
Starlink v2.0 mini
覆盖范围:
全球
运营商:
太空探索技术公司
运营商所在国:
美国
制造商(研发单位):
太空探索技术公司
制造商所在国:
美国
使用方式:
暂无
Satellite Introduction
星链(Starlink)计划是由太空探索技术公司(SpaceX)提出的一个巨型低轨卫星互联网星座项目,计划在2019年至2024年间在太空搭建由约1.2万颗卫星组成的“星链”网络,其中1584颗将部署在地球上空550千米处的近地轨道,并从2020年开始工作。该卫星仍在工作。
2D Orbit Map
3D Orbit Map
Orbit Altitude Analysis Chart
Orbit Inclination Analysis Chart
Orbit Comprehensive Analysis Chart
View Comprehensive Chart
Conjunction Data List
Event ID Objects TCA Miss Dist (km) Collision Risk Probability Collision Risk Index (CRI) Action
CDM_260905-015005-927006-601221
2026-09-05T
01:50:41+0000
0.654 km
远距离
6.674585E-5 中风险 0.71
CDM_260904-053705-927006-265923
2026-09-04T
05:37:43+0000
1.016 km
极远距离
2.21106E-5 中风险 0.62
CDM_260904-141305-927006-265922
2026-09-04T
14:13:55+0000
1.801 km
极远距离
3.287503E-6 低风险 0.45
CDM_260904-124005-927006-265923
2026-09-04T
12:40:04+0000
2.215 km
极远距离
1.954217E-6 低风险 0.41
CDM_260902-202803-134605-927023
2026-09-02T
20:28:14+0000
2.365 km
极远距离
1.952262E-6 低风险 0.41
CDM_260905-001605-927006-601221
2026-09-05T
00:16:54+0000
2.713 km
极远距离
1.039117E-6 低风险 0.35
CDM_260827-232105-328705-927022
2026-08-27T
23:21:14+0000
2.963 km
极远距离
4.917112E-7 极低风险 0.29